Location: Austin
(30.3000°N, 97.7500°W)
Time: 03:04:43
(UTC-05:00)

SL-27 R/B - Pass Details

Date: 18 March 2023
Orbit: 398 x 434 km, 74.7° (Epoch: 01 April)

Event Time Altitude Azimuth Distance (km) Brightness Sun altitude
Rises 20:18:15 0° 161° (SSE) 2,386 5.8 -8.8°
Reaches altitude 10° 20:20:53 10° 138° (SE) 1,517 4.6 -9.4°
Maximum altitude 20:22:58 16° 99° (E) 1,210 3.9 -9.8°
Enters shadow 20:24:24 13° 70° (ENE) 1,362 4.3 -10.2°
